Location: Melizzano
(41.1500°N, 14.5000°E)
Time: 08:24:06
(UTC+00:00)

Cosmos 1743 Rocket - Pass Details

Date: 11 May 2021
Orbit: 605 x 632 km, 82.6° (Epoch: 15 June)

Event Time Altitude Azimuth Distance (km) Brightness Sun altitude
Rises 19:05:43 0° 346° (NNW) 2,874 7.8 -10.0°
Reaches altitude 10° 19:07:59 10° 341° (NNW) 1,967 7.0 -10.3°
Maximum altitude 19:12:11 49° 267° (W) 791 4.5 -11.0°
Drops below altitude 10° 19:16:22 10° 192° (SSW) 1,965 5.9 -11.6°
Sets 19:18:38 0° 187° (S) 2,870 6.7 -11.9°
